OK1RPL-6 Weather Reports


time (UTC)temp
F
wind
direction
speed
knots
gust
knots
rain 1hr
in
rain 24hr
in
rain mn
in
humidity
%
barometer
mb
20260505035701 38 45 0.9 2.6 0.00 0.00 0.00 1008.6
20260505035657 38 45 0.9 2.6 0.00 0.00 0.00 1008.6
20260505020722 39 315 0.0 0.0 0.00 0.00 0.00 10.0
20260505020717 39 315 0.0 0.0 0.00 0.00 0.00 1008.4
20260505010444 40 90 0.9 2.6 0.00 0.00 0.00 1009.4
20260505010439 40 90 0.9 2.6 0.00 0.00 0.00 1009.4
20260505004907 40 45 0.9 3.5 0.00 0.00 0.00 1009.4
20260505004902 40 45 0.9 3.5 0.00 0.00 0.00 1009.4
20260504234629 40 0 0.9 2.6 0.00 0.00 0.00 1009.4
20260504233041 40 135 0.9 3.5 0.00 0.00 0.00 1009.4
20260504225927 40 180 0.9 3.5 0.00 0.00 0.00 1010.4
20260504225922 40 180 0.9 3.5 0.00 0.00 0.00 1010.4
20260504224350 41 90 0.9 3.5 0.00 0.00 0.00 1010.3
20260504215648 43 222 0.9 6.1 0.00 0.00 0.00 1010.0
20260504214111 43 180 0.9 5.2 0.00 0.00 0.00 1010.0
20260504212525 43 135 0.9 3.5 0.00 0.00 0.00 1010.0
20260504210948 42 180 0.9 3.5 0.00 0.00 0.00 1010.0
20260504205410 43 90 0.9 3.5 0.00 0.00 0.00 1009.8
20260504205405 43 90 0.9 3.5 0.00 0.00 0.00 1009.8
20260504200708 44 0 0.9 2.6 0.00 0.00 0.00 1009.6
20260504193555 44 45 0.9 2.6 0.00 0.00 0.00 1010.7
20260504193550 44 45 0.9 2.6 0.00 0.00 0.00 1010.7
20260504192008 44 90 0.9 2.6 0.00 0.00 0.00 1010.7
20260504192003 44 90 0.9 2.6 0.00 0.00 0.00 1010.7
20260504190431 44 90 0.9 2.6 0.00 0.00 0.00 1009.6
20260504184853 44 45 0.9 1.7 0.00 0.00 0.00 1009.6
20260504184848 44 45 0.9 1.7 0.00 0.00 0.00 1009.6
20260504180147 46 0 0.9 2.6 0.00 0.00 0.00 1009.1
20260504174615 46 90 0.9 5.2 0.00 0.00 0.00 1008.8
20260504174610 46 90 0.9 5.2 0.00 0.00 0.00 1008.8
20260504173038 47 90 1.7 3.5 0.00 0.00 0.00 1008.3
20260504173033 47 90 1.7 3.5 0.00 0.00 0.00 1008.3
20260504171451 48 0 0.9 2.6 0.00 0.00 0.00 1007.5
20260504150934 49 270 1.7 6.1 0.00 0.00 0.00 1007.2
20260504140655 50 222 1.7 7.0 0.00 0.00 0.00 1006.6
20260504130417 50 222 0.9 6.1 0.00 0.00 0.00 1008.0
20260504120138 49 315 2.6 5.2 0.00 0.00 0.00 1008.4